www.pogodaiklimat.ru

Погода и климат >> Архив погоды >> Индия >> Керала >> Каннаноре


ПОГОДА в Каннаноре

  • Прогноз погоды в Каннаноре
  • Монитор погоды в Каннаноре

АРХИВ ПОГОДЫ в Каннаноре

Время (UTC), дата Ветер
(напр.,м/с)
 
Видим.   Явления Облачность Т
(С)
Тd
(С)
f
(%)
Тe
(С)
Тes
(С)
Комфортность P
(гПа)
Po
(гПа)
Тmin
(С)
Tmax
(С)
R
(мм)
R24
(мм)
S
(см)
03 17.07 СЗ 2 4000 м 6/3 600 м
[Sc Ac trans Ci fib]
+26.8 +23.3 81 +36 +40 очень
душно
1008.8 1006.7 58
06 17.07 З 3 10 км 8/4 600 м
[Cu Sc Ac trans Ci sp]
+29.6 +23.8 71 +41 +47 опасность
перегрева
1008.7 1006.7
09 17.07 ЮЗ 4 4000 м 8/5 600 м
[Cb cap Ac trans Ci fib]
+29.0 +25.6 82 +43 +47 опасность
перегрева
1006.8 1004.8
12 17.07 СЗ 2 4000 м 6/4 600 м
[Cu Sc Ac trans Ci sp]
+27.8 +23.1 76 +37 +39 очень
душно
1005.5 1003.4 +30.0
00 18.07 штиль 0 2000 м дымка 6/3 600 м
[Sc Ac trans Ci fib]
+24.8 +23.0 90 +33 +33 очень
душно
1005.5 1003.4 0.7
03 18.07 СЗ 2 4000 м 8/4 300 м
[Frnb Ac trans Ci sp]
+27.2 +24.3 84 +38 +41 очень
душно
1006.4 1004.3 +24.6 +30.0 0.7
06 18.07 З 3 4000 м слаб. морось 9/6 300 м
[Frnb Ac trans Ci fib]
+27.8 +24.9 84 +40 +44 очень
душно
1007.5 1005.4 0.0
09 18.07 З 4 4000 м 6/4 300 м
[Cb calv Ac trans Ci fib]
+29.8 +25.0 75 +43 +48 опасность
перегрева
1005.1 1003.1 0.0
12 18.07 З 4 4000 м 9/6 300 м
[Cb cap Ac trans Ci fib]
+28.2 +24.8 82 +40 +41 очень
душно
1004.1 1002.1 +30.4 0.0
00 19.07 С 2 2000 м дождь {морось} 10/6 200 м
[Frnb Ac As]
+24.0 +23.4 96 +32 +32 очень
душно
1004.7 1002.6 50
03 19.07 С 2 2000 м дождь {морось} 10/6 200 м
[Frnb Ac As]
+24.0 +23.4 96 +32 +33 очень
душно
1006.1 1004.0 +23.3 +30.4 85
06 19.07 З 2 4000 м дождь {морось} 10/8 200 м
[Frnb Ac As]
+24.6 +24.3 98 +34 +35 очень
душно
1006.6 1004.5 66
09 19.07 З 1 4000 м слаб. дождь {морось} 10/6 300 м
[Frnb Ac As]
+25.6 +25.6 100 +37 +40 очень
душно
1005.2 1003.1 98
12 19.07 СЗ 2 4000 м слаб. дождь {морось} 10/6 300 м
[Frnb As op]
+23.6 +23.3 98 +32 +32 очень
душно
1004.6 1002.5 +25.7 118
00 20.07 З 2 1000 м дождь {морось} 10/6 200 м
[Frnb As op]
+22.8 +22.8 100 +31 +31 очень
душно
1005.4 1003.3 199
03 20.07 В 1 4000 м слаб. морось {дождь} 10/5
[Frnb Ac As]
+23.4 +23.4 100 +33 +34 очень
душно
1006.8 1004.7 +22.6 +25.7
06 20.07 ЮЗ 2 4000 м слаб. морось {дождь} 10/5 300 м
[Frnb Ac As]
+24.6 +24.6 100 +34 +38 очень
душно
1007.0 1004.9 5
09 20.07 ЮЗ 2 4000 м слаб. дождь {морось} 10/6 300 м
[Frnb As op]
+24.8 +24.5 98 +35 +36 очень
душно
1006.0 1003.9 21
12 20.07 ЮЗ 1 4000 м слаб. морось {дождь} 10/5 300 м
[Frnb Ac As]
+25.8 +25.5 98 +38 +38 очень
душно
1004.6 1002.5 +26.0 32
00 21.07 В 1 2000 м дымка {дождь} 10/5 300 м
[Frnb Ac As]
+23.8 +23.2 96 +32 +32 очень
душно
1005.1 1003.0 64
03 21.07 ЮЗ 2 4000 м в посл. час дождь {морось} 10/5 300 м
[Frnb Ac As]
+24.6 +24.3 98 +34 +35 очень
душно
1007.1 1005.0 +23.0 +26.0 74
06 21.07 З 2 4000 м в посл. час морось {дождь} 8/5 300 м
[Frnb Ac trans Ci fib]
+26.6 +26.0 97 +40 +48 очень
душно
1007.3 1005.2 0.0
09 21.07 З 2 4000 м дождь {морось} 10/6 300 м
[Frnb As op]
+25.6 +24.7 95 +36 +38 очень
душно
1005.4 1003.3 11
12 21.07 СЗ 4 2000 м слаб. дождь {морось} 10/6 200 м
[Frnb As op]
+24.4 +23.8 96 +33 +33 очень
душно
1005.1 1003.0 +27.4 21
00 22.07 штиль 0 1000 м слаб. дождь {морось} 10/6 300 м
[Frnb As op]
+23.4 +23.4 100 +33 +33 очень
душно
1005.8 1003.7 56
03 22.07 штиль 0 4000 м слаб. дождь {морось} 10/6 300 м
[Frnb Ac As]
+23.8 +23.8 100 +32 +33 очень
душно
1007.2 1005.1 +22.6 +27.4 68
06 22.07 СВ 2 4000 м слаб. морось {дождь} 10/5 300 м
[Frnb As op]
+24.4 +24.1 98 +34 +36 очень
душно
1007.1 1005.0 7
09 22.07 ЮЗ 2 4000 м дождь {морось} 10/6 300 м
[Frnb As op]
+24.6 +24.3 98 +34 +35 очень
душно
1006.1 1004.0 38
12 22.07 З 3 4000 м дождь {морось} 10/6 300 м
[Frnb Ac As]
+24.6 +24.3 98 +34 +34 очень
душно
1005.0 1002.9 +24.9 49
00 23.07 штиль 0 1000 м слаб. морось {дождь} 10/5 200 м
[Frnb Ac As]
+23.4 +23.4 100 +33 +33 очень
душно
1005.6 1003.5 100
03 23.07 В 1 4000 м в посл. час дождь {морось} 9/4 300 м
[Frnb Ac As]
+23.8 +23.5 98 +32 +34 очень
душно
1007.5 1005.4 +22.6 +24.9 112
06 23.07 ЮЗ 2 4000 м {дождь, морось} 9/5 300 м
[Frnb Ac trans Ci sp]
+25.4 +24.8 96 +36 +42 очень
душно
1007.7 1005.6 0.0
09 23.07 Ю 2 4000 м в посл. час морось {дождь} 10/4 300 м
[Frnb Ac As]
+25.6 +25.0 96 +36 +40 очень
душно
1006.7 1004.6 2
12 23.07 З 1 4000 м в посл. час дождь {морось} 10/5 300 м
[Frnb Ac As]
+25.4 +24.5 95 +36 +36 очень
душно
1006.1 1004.0 +25.8 4

 

Местоположение метеостанции Каннаноре (Керала, Индия): широта 11.83 долгота 75.33 высота над уровнем моря 18 м.

В архиве по умолчанию представлена погода в Каннаноре за последнюю неделю. Архивные данные за месяц целиком и за предыдущие месяцы, начиная с января 2011 года, Вы можете получить, выбрав интересующий диапазон дат из раскрывающегося списка и нажав кнопку "Ввод!".


*Определитесь, кто Вы:
робот инопланетянин человек

Внимание! Время в таблицах - всемирное. Для получения местного времени необходимо прибавить поправку, которая равна 5.5 ч.

Смотрите также архив погоды в соседних городах и на ближайших метеорологических станциях:

Погода в Мадикери (Карнатака, Индия) (79 км)
Погода в Кожикоде (Керала, Индия) (81 км)
Погода в Карипере (Керала, Индия) (103 км)
Погода в Мангалор аэропорт (Карнатака, Индия) (131 км)
Погода в Мангалоре (Карнатака, Индия) (136 км)
Погода в Майсуре (Карнатака, Индия) (158 км)
Погода в Удагамандаламе (Тамилнад, Индия) (160 км)
Погода в Чикмагалуре (Карнатака, Индия) (164 км)
Погода в Хассане (Карнатака, Индия) (167 км)
Погода в Кунуре (Тамилнад, Индия) (169 км)

Пояснения к столбцам:

Ветер - указаны скорость ветра в м/с - средняя за 10 мин, порывы в срок и между сроками (в фигурных скобках) и направление, откуда дует ветер: С - северный, СВ - северо-восточный, В - восточный, ЮВ - юго-восточный, Ю - южный, ЮЗ - юго-западный, З - западный, СЗ - северо-западный.
Видимость - горизонтальная дальность видимости в метрах или километрах. При видимости от 1 до 10 км при отсутствии осадков обычно наблюдается дымка, при ухудшении видимости до 1 км и менее - туман. В сухую погоду видимость может ухудшаться дымом, пылью или мглою.
Явления - указаны атмосферные явления, наблюдавшиеся в срок или в последний час перед сроком; фигурными скобками обозначены явления, наблюдавшиеся между сроками (за 1-3 часа до срока); квадратными скобками обозначены град или гололедные отложения с указанием их диаметра в мм.
Облачность - указаны через наклонную черту общая и нижняя облачность в баллах и высота нижней границы облаков в метрах; квадратными скобками обозначены формы облаков: Ci - перистые, Cs - перисто-слоистые, Cc - перисто-кучевые, Ac - высококучевые, As - высокослоистые, Sc - слоисто-кучевые, Ns - слоисто-дождевые, Cu - кучевые, Cb - кучево-дождевые. Подробнее классификацию облаков см. в Атласе облаков (PDF).
T - Температура воздуха - температура, измеренная на высоте 2 м над землей.
Td - Температура точки росы - температура, при понижении до которой содержащийся в воздухе водяной пар достигнет насыщения.
f - Относительная влажность воздуха - влажноcть воздуха, измеренная на высоте 2 м над землей.
Te - Эффективная температура - температура, которую ощущает одетый по сезону человек в тени. Характеристика душности погоды. При расчете учитывается влияние влажности воздуха и скорости ветра на теплоощущения человека.
Tes - Эффективная температура на солнце - температура, которую ощущает человек, с поправкой на солнечный нагрев. Характеристика знойности погоды. Зависит от высоты солнца над горизонтом, облачности и скорости ветра. Ночью, в пасмурную погоду, а также при ветре 12 м/с и более поправка равна нулю.
P - Атмосферное давление - приведенное к уровню моря атмосферное давление.
Po - Атмосферное давление - измеренное на уровне метеостанции атмосферное давление.
Tmin - Минимальная температура - минимум температуры воздуха на высоте 2 м над землей.
Tmax - Максимальная температура - максимум температуры воздуха на высоте 2 м над землей.
R - Количество осадков - Количество выпавших осадков за период времени, мм. При наведении курсора мыши на число - период времени, за который выпало указанное количество осадков.
R24 - Количество осадков - Количество выпавших осадков за 24 часа, мм.
S - Снежный покров - Высота снежного покрова, см. При наведении курсора мыши на число - состояние снежного покрова и степень покрытия местности в баллах.